TimeCDT,TemperatureF,Dew PointF,Humidity,Sea Level PressureIn,VisibilityMPH,Wind Direction,Wind SpeedMPH,Gust SpeedMPH,PrecipitationIn,Events,Conditions,WindDirDegrees,DateUTC
12:05 AM,37.4,37.4,100,29.85,1.2,Calm,Calm,-,N/A,,Partly Cloudy,0,2012-10-15 05:05:00
12:07 AM,37.4,37.4,100,29.85,3.0,Calm,Calm,-,N/A,,Clear,0,2012-10-15 05:07:00
12:25 AM,37.4,35.6,93,29.85,1.8,Calm,Calm,-,N/A,,Clear,0,2012-10-15 05:25:00
12:36 AM,37.4,35.6,93,29.85,0.8,Calm,Calm,-,N/A,,Clear,0,2012-10-15 05:36:00
12:45 AM,37.4,35.6,93,29.85,1.2,Calm,Calm,-,N/A,,Clear,0,2012-10-15 05:45:00
12:53 AM,37.0,36.0,96,29.88,1.2,Calm,Calm,-,N/A,,Clear,0,2012-10-15 05:53:00
1:29 AM,35.6,35.6,100,29.86,0.8,Calm,Calm,-,N/A,,Clear,0,2012-10-15 06:29:00
1:38 AM,35.6,35.6,100,29.86,2.0,Calm,Calm,-,N/A,,Clear,0,2012-10-15 06:38:00
1:48 AM,36.0,35.1,97,29.89,0.8,Calm,Calm,-,N/A,,Clear,0,2012-10-15 06:48:00
1:57 AM,37.4,35.6,93,29.87,2.0,Calm,Calm,-,N/A,,Clear,0,2012-10-15 06:57:00
2:05 AM,35.6,35.6,100,29.87,3.0,Calm,Calm,-,N/A,,Clear,0,2012-10-15 07:05:00
2:10 AM,33.8,33.8,100,29.87,1.8,Calm,Calm,-,N/A,,Clear,0,2012-10-15 07:10:00
2:19 AM,35.6,33.8,93,29.87,0.5,Calm,Calm,-,N/A,Fog,Fog,0,2012-10-15 07:19:00
2:35 AM,35.6,35.6,100,29.87,1.2,Calm,Calm,-,N/A,,Clear,0,2012-10-15 07:35:00
2:43 AM,33.8,32.0,93,29.87,0.5,Calm,Calm,-,N/A,Fog,Fog,0,2012-10-15 07:43:00
2:53 AM,35.1,34.0,96,29.90,0.5,Calm,Calm,-,N/A,Fog,Fog,0,2012-10-15 07:53:00
3:14 AM,35.6,33.8,93,29.88,0.5,Calm,Calm,-,N/A,Fog,Fog,0,2012-10-15 08:14:00
3:43 AM,33.8,33.8,100,29.88,0.2,Calm,Calm,-,N/A,Fog,Fog,0,2012-10-15 08:43:00
3:53 AM,34.0,32.0,92,29.90,0.2,Calm,Calm,-,N/A,Fog,Fog,0,2012-10-15 08:53:00
4:06 AM,33.8,33.8,100,29.88,0.5,Calm,Calm,-,N/A,Fog,Fog,0,2012-10-15 09:06:00
4:25 AM,33.8,33.8,100,29.88,1.0,Calm,Calm,-,N/A,,Clear,0,2012-10-15 09:25:00
4:31 AM,33.8,33.8,100,29.88,3.0,Calm,Calm,-,N/A,,Clear,0,2012-10-15 09:31:00
4:47 AM,33.8,33.8,100,29.89,1.8,Calm,Calm,-,N/A,,Clear,0,2012-10-15 09:47:00
4:53 AM,35.1,34.0,96,29.91,2.0,Calm,Calm,-,N/A,,Clear,0,2012-10-15 09:53:00
5:06 AM,33.8,33.8,100,29.89,1.5,Calm,Calm,-,N/A,,Clear,0,2012-10-15 10:06:00
5:09 AM,33.8,33.8,100,29.89,3.0,Calm,Calm,-,N/A,,Clear,0,2012-10-15 10:09:00
5:53 AM,33.1,33.1,100,29.92,10.0,SSE,3.5,-,N/A,,Clear,160,2012-10-15 10:53:00
6:43 AM,33.8,32.0,93,29.92,1.8,Calm,Calm,-,N/A,,Clear,0,2012-10-15 11:43:00
6:53 AM,32.0,32.0,100,29.94,1.0,Calm,Calm,-,N/A,,Clear,0,2012-10-15 11:53:00
7:04 AM,32.0,30.2,93,29.91,3.0,Calm,Calm,-,N/A,,Clear,0,2012-10-15 12:04:00
7:19 AM,32.0,30.2,93,29.92,1.2,Calm,Calm,-,N/A,,Clear,0,2012-10-15 12:19:00
7:23 AM,30.2,30.2,100,29.93,0.8,Calm,Calm,-,N/A,,Mist,0,2012-10-15 12:23:00
7:36 AM,30.2,30.2,100,29.93,2.0,Calm,Calm,-,N/A,,Clear,0,2012-10-15 12:36:00
7:43 AM,32.0,30.2,93,29.93,4.0,Calm,Calm,-,N/A,,Clear,0,2012-10-15 12:43:00
7:53 AM,32.0,32.0,100,29.96,4.0,Calm,Calm,-,N/A,,Clear,0,2012-10-15 12:53:00
8:53 AM,37.9,37.0,97,29.96,7.0,South,3.5,-,N/A,,Clear,180,2012-10-15 13:53:00
9:53 AM,43.0,39.0,86,29.98,8.0,Calm,Calm,-,N/A,,Clear,0,2012-10-15 14:53:00
10:53 AM,46.0,39.9,79,29.98,10.0,Calm,Calm,-,N/A,,Clear,0,2012-10-15 15:53:00
11:53 AM,53.1,37.9,57,29.98,10.0,NW,3.5,-,N/A,,Clear,320,2012-10-15 16:53:00
1:53 PM,57.0,39.9,53,29.94,10.0,ENE,4.6,-,N/A,,Clear,60,2012-10-15 18:53:00
2:53 PM,57.9,37.9,47,29.93,10.0,Calm,Calm,-,N/A,,Clear,0,2012-10-15 19:53:00
3:53 PM,59.0,37.0,44,29.91,10.0,ENE,3.5,-,N/A,,Clear,60,2012-10-15 20:53:00
4:53 PM,60.1,37.9,44,29.91,10.0,Calm,Calm,-,N/A,,Clear,0,2012-10-15 21:53:00
5:53 PM,57.0,39.9,53,29.90,10.0,South,3.5,-,N/A,,Clear,170,2012-10-15 22:53:00
6:53 PM,51.1,39.9,66,29.90,10.0,SSW,4.6,-,N/A,,Clear,200,2012-10-15 23:53:00
7:53 PM,46.9,41.0,80,29.91,10.0,ESE,3.5,-,N/A,,Clear,120,2012-10-16 00:53:00
8:53 PM,46.9,41.0,80,29.91,10.0,SE,4.6,-,N/A,,Overcast,140,2012-10-16 01:53:00
9:53 PM,46.9,39.9,77,29.90,10.0,SE,3.5,-,N/A,,Clear,140,2012-10-16 02:53:00
10:53 PM,46.9,41.0,80,29.88,10.0,SE,5.8,-,N/A,,Mostly Cloudy,130,2012-10-16 03:53:00
11:53 PM,48.0,41.0,77,29.87,10.0,SE,5.8,-,N/A,,Overcast,140,2012-10-16 04:53:00